Time,TemperatureF,DewpointF,PressureIn,WindDirection,WindDirectionDegrees,WindSpeedMPH,WindSpeedGustMPH,Humidity,HourlyPrecipIn,Conditions,Clouds,dailyrainin,SoftwareType,DateUTC
2013-04-10 00:03:00,71.1,62.8,29.84,North,0,0.0,0.0,75,0.00,,,0.00,meteohub,2013-04-10 05:03:00,
2013-04-10 00:08:00,70.7,62.4,29.84,North,0,0.0,0.0,75,0.00,,,0.00,meteohub,2013-04-10 05:08:00,
2013-04-10 00:13:00,70.3,62.4,29.83,North,0,0.0,0.0,76,0.00,,,0.00,meteohub,2013-04-10 05:13:00,
2013-04-10 00:19:00,70.0,62.4,29.83,North,0,0.0,0.0,77,0.00,,,0.00,meteohub,2013-04-10 05:19:00,
2013-04-10 00:24:00,70.0,62.4,29.83,North,0,0.0,0.0,77,0.00,,,0.00,meteohub,2013-04-10 05:24:00,
2013-04-10 00:29:00,69.8,62.6,29.83,North,0,0.0,0.0,78,0.00,,,0.00,meteohub,2013-04-10 05:29:00,
2013-04-10 00:34:00,69.6,62.4,29.83,North,0,0.0,0.0,78,0.00,,,0.00,meteohub,2013-04-10 05:34:00,
2013-04-10 00:40:00,69.4,62.2,29.83,North,0,0.0,0.0,78,0.00,,,0.00,meteohub,2013-04-10 05:40:00,
2013-04-10 00:45:00,69.4,62.6,29.83,North,0,0.0,0.0,79,0.00,,,0.00,meteohub,2013-04-10 05:45:00,
2013-04-10 00:50:00,69.3,62.4,29.83,North,0,0.0,0.0,79,0.00,,,0.00,meteohub,2013-04-10 05:50:00,
2013-04-10 00:55:00,69.1,62.2,29.82,North,0,0.0,0.0,79,0.00,,,0.00,meteohub,2013-04-10 05:55:00,
2013-04-10 01:00:00,69.1,62.6,29.81,North,0,0.0,0.0,80,0.00,,,0.00,meteohub,2013-04-10 06:00:00,
2013-04-10 01:06:00,68.7,62.6,29.81,North,0,0.0,0.0,81,0.00,,,0.00,meteohub,2013-04-10 06:06:00,
2013-04-10 01:12:00,68.7,62.6,29.81,North,0,0.0,0.0,81,0.00,,,0.00,meteohub,2013-04-10 06:12:00,
2013-04-10 01:17:00,69.1,63.0,29.81,North,0,0.0,0.0,81,0.00,,,0.00,meteohub,2013-04-10 06:17:00,
2013-04-10 01:22:00,69.3,63.1,29.82,North,0,0.0,0.0,81,0.00,,,0.00,meteohub,2013-04-10 06:22:00,
2013-04-10 01:27:00,69.4,63.0,29.82,North,0,0.0,0.0,80,0.00,,,0.00,meteohub,2013-04-10 06:27:00,
2013-04-10 01:32:00,69.6,63.1,29.81,North,0,0.0,0.0,80,0.00,,,0.00,meteohub,2013-04-10 06:32:00,
2013-04-10 01:37:00,69.4,63.3,29.81,North,0,0.0,0.0,81,0.00,,,0.00,meteohub,2013-04-10 06:37:00,
2013-04-10 01:42:00,69.6,63.5,29.81,North,0,0.0,0.0,81,0.00,,,0.00,meteohub,2013-04-10 06:42:00,
2013-04-10 01:47:00,69.8,63.3,29.81,North,0,0.0,0.0,80,0.00,,,0.00,meteohub,2013-04-10 06:47:00,
2013-04-10 01:52:00,69.8,63.3,29.81,North,0,0.0,0.0,80,0.00,,,0.00,meteohub,2013-04-10 06:52:00,
2013-04-10 01:57:00,70.0,63.5,29.81,North,0,0.0,0.0,80,0.00,,,0.00,meteohub,2013-04-10 06:57:00,
2013-04-10 02:02:00,70.0,63.5,29.82,North,0,0.0,0.0,80,0.00,,,0.00,meteohub,2013-04-10 07:02:00,
2013-04-10 02:07:00,70.2,63.7,29.81,North,0,0.0,0.0,80,0.00,,,0.00,meteohub,2013-04-10 07:07:00,
2013-04-10 02:12:00,70.2,63.7,29.81,North,0,0.0,0.0,80,0.00,,,0.00,meteohub,2013-04-10 07:12:00,
2013-04-10 02:17:00,70.2,63.7,29.82,North,0,0.0,0.0,80,0.00,,,0.00,meteohub,2013-04-10 07:17:00,
2013-04-10 02:22:00,70.2,63.7,29.82,North,0,0.0,0.0,80,0.00,,,0.00,meteohub,2013-04-10 07:22:00,
2013-04-10 02:27:00,70.2,63.7,29.82,North,0,0.0,0.0,80,0.00,,,0.00,meteohub,2013-04-10 07:27:00,
2013-04-10 02:32:00,70.2,63.7,29.82,North,0,0.0,0.0,80,0.00,,,0.00,meteohub,2013-04-10 07:32:00,
2013-04-10 02:38:00,70.2,64.0,29.82,North,0,0.0,0.0,81,0.00,,,0.00,meteohub,2013-04-10 07:38:00,
2013-04-10 02:43:00,70.2,64.0,29.82,North,0,0.0,0.0,81,0.00,,,0.00,meteohub,2013-04-10 07:43:00,
2013-04-10 02:48:00,70.3,64.2,29.82,North,0,0.0,0.0,81,0.00,,,0.00,meteohub,2013-04-10 07:48:00,
2013-04-10 02:53:00,70.3,64.2,29.82,North,0,0.0,0.0,81,0.00,,,0.00,meteohub,2013-04-10 07:53:00,
2013-04-10 02:58:00,70.5,64.4,29.82,North,0,0.0,0.0,81,0.00,,,0.00,meteohub,2013-04-10 07:58:00,
2013-04-10 03:03:00,70.7,64.2,29.82,North,0,0.0,0.0,80,0.00,,,0.00,meteohub,2013-04-10 08:03:00,
2013-04-10 03:09:00,70.9,64.4,29.81,North,0,0.0,0.0,80,0.00,,,0.00,meteohub,2013-04-10 08:09:00,
2013-04-10 03:14:00,70.9,64.4,29.81,North,0,0.0,0.0,80,0.00,,,0.00,meteohub,2013-04-10 08:14:00,
2013-04-10 03:19:00,70.9,64.8,29.81,North,0,0.0,0.0,81,0.00,,,0.00,meteohub,2013-04-10 08:19:00,
2013-04-10 03:24:00,70.7,64.2,29.81,North,0,0.0,0.0,80,0.00,,,0.00,meteohub,2013-04-10 08:24:00,
2013-04-10 03:29:00,70.3,64.2,29.81,North,0,0.0,0.0,81,0.00,,,0.00,meteohub,2013-04-10 08:29:00,
2013-04-10 03:34:00,70.3,64.2,29.80,North,0,0.0,0.0,81,0.00,,,0.00,meteohub,2013-04-10 08:34:00,
2013-04-10 03:40:00,70.2,64.4,29.80,North,0,0.0,0.0,82,0.00,,,0.00,meteohub,2013-04-10 08:40:00,
2013-04-10 03:45:00,69.8,64.0,29.80,North,0,0.0,0.0,82,0.00,,,0.00,meteohub,2013-04-10 08:45:00,
2013-04-10 03:50:00,69.3,63.9,29.79,North,0,0.0,0.0,83,0.00,,,0.00,meteohub,2013-04-10 08:50:00,
2013-04-10 03:55:00,68.9,63.9,29.79,North,0,0.0,0.0,84,0.00,,,0.00,meteohub,2013-04-10 08:55:00,
2013-04-10 04:00:00,68.7,63.7,29.80,North,0,0.0,0.0,84,0.00,,,0.00,meteohub,2013-04-10 09:00:00,
2013-04-10 04:06:00,68.7,64.0,29.79,North,0,0.0,0.0,85,0.00,,,0.00,meteohub,2013-04-10 09:06:00,
2013-04-10 04:11:00,68.7,64.0,29.80,North,0,0.0,0.0,85,0.00,,,0.00,meteohub,2013-04-10 09:11:00,
2013-04-10 04:16:00,68.9,63.9,29.80,North,0,0.0,0.0,84,0.00,,,0.00,meteohub,2013-04-10 09:16:00,
2013-04-10 04:21:00,69.1,64.0,29.80,North,0,0.0,0.0,84,0.00,,,0.00,meteohub,2013-04-10 09:21:00,
2013-04-10 04:26:00,69.1,64.0,29.80,North,0,0.0,0.0,84,0.00,,,0.00,meteohub,2013-04-10 09:26:00,
2013-04-10 04:32:00,69.4,64.4,29.80,North,0,0.0,0.0,84,0.00,,,0.00,meteohub,2013-04-10 09:32:00,
2013-04-10 04:37:00,69.4,64.4,29.79,North,0,0.0,0.0,84,0.00,,,0.00,meteohub,2013-04-10 09:37:00,
2013-04-10 04:42:00,69.4,64.4,29.78,North,0,0.0,0.0,84,0.00,,,0.00,meteohub,2013-04-10 09:42:00,
2013-04-10 04:47:00,69.3,64.2,29.78,North,0,0.0,0.0,84,0.00,,,0.00,meteohub,2013-04-10 09:47:00,
2013-04-10 04:52:00,69.3,64.2,29.78,North,0,0.0,0.0,84,0.00,,,0.00,meteohub,2013-04-10 09:52:00,
2013-04-10 04:57:00,69.3,64.6,29.78,North,0,0.0,0.0,85,0.00,,,0.00,meteohub,2013-04-10 09:57:00,
2013-04-10 05:02:00,69.4,64.4,29.78,North,0,0.0,0.0,84,0.00,,,0.00,meteohub,2013-04-10 10:02:00,
2013-04-10 05:07:00,69.4,64.4,29.78,North,0,0.0,0.0,84,0.00,,,0.00,meteohub,2013-04-10 10:07:00,
2013-04-10 05:13:00,69.4,64.4,29.77,North,0,0.0,0.0,84,0.00,,,0.00,meteohub,2013-04-10 10:13:00,
2013-04-10 05:18:00,69.6,64.6,29.77,North,0,0.0,0.0,84,0.00,,,0.00,meteohub,2013-04-10 10:18:00,
2013-04-10 05:23:00,69.4,64.4,29.77,North,0,0.0,0.0,84,0.00,,,0.00,meteohub,2013-04-10 10:23:00,
2013-04-10 05:29:00,69.6,64.6,29.77,North,0,0.0,0.0,84,0.00,,,0.00,meteohub,2013-04-10 10:29:00,
2013-04-10 05:34:00,69.4,64.4,29.77,North,0,0.0,0.0,84,0.00,,,0.00,meteohub,2013-04-10 10:34:00,
2013-04-10 05:39:00,69.4,64.4,29.77,North,0,0.0,0.0,84,0.00,,,0.00,meteohub,2013-04-10 10:39:00,
2013-04-10 05:44:00,69.4,64.4,29.77,North,0,0.0,0.0,84,0.00,,,0.00,meteohub,2013-04-10 10:44:00,
2013-04-10 05:49:00,69.4,64.4,29.77,North,0,0.0,0.0,84,0.00,,,0.00,meteohub,2013-04-10 10:49:00,
2013-04-10 05:54:00,69.4,64.4,29.77,North,0,0.0,0.0,84,0.00,,,0.00,meteohub,2013-04-10 10:54:00,
2013-04-10 05:59:00,69.8,64.8,29.77,North,0,0.0,0.0,84,0.00,,,0.00,meteohub,2013-04-10 10:59:00,
2013-04-10 06:05:00,70.0,64.9,29.77,North,0,0.0,0.0,84,0.00,,,0.00,meteohub,2013-04-10 11:05:00,
2013-04-10 06:10:00,70.0,64.9,29.78,North,0,0.0,0.0,84,0.00,,,0.00,meteohub,2013-04-10 11:10:00,
2013-04-10 06:15:00,70.2,65.1,29.78,North,0,0.0,0.0,84,0.00,,,0.00,meteohub,2013-04-10 11:15:00,
2013-04-10 06:20:00,70.2,64.8,29.78,North,0,0.0,0.0,83,0.00,,,0.00,meteohub,2013-04-10 11:20:00,
2013-04-10 06:25:00,70.2,64.8,29.78,North,0,0.0,0.0,83,0.00,,,0.00,meteohub,2013-04-10 11:25:00,
2013-04-10 06:30:00,70.2,64.8,29.78,North,0,0.0,0.0,83,0.00,,,0.00,meteohub,2013-04-10 11:30:00,
2013-04-10 06:35:00,70.2,64.8,29.78,North,0,0.0,0.0,83,0.00,,,0.00,meteohub,2013-04-10 11:35:00,
2013-04-10 06:41:00,70.3,64.9,29.79,North,0,0.0,0.0,83,0.00,,,0.00,meteohub,2013-04-10 11:41:00,
2013-04-10 06:46:00,70.7,65.3,29.79,North,0,0.0,0.0,83,0.00,,,0.00,meteohub,2013-04-10 11:46:00,
2013-04-10 06:52:00,71.1,65.7,29.79,North,0,0.0,0.0,83,0.00,,,0.00,meteohub,2013-04-10 11:52:00,
2013-04-10 06:57:00,71.4,65.7,29.79,North,0,0.0,0.0,82,0.00,,,0.00,meteohub,2013-04-10 11:57:00,
2013-04-10 07:02:00,71.8,66.0,29.79,North,0,0.0,0.0,82,0.00,,,0.00,meteohub,2013-04-10 12:02:00,
2013-04-10 07:07:00,72.0,65.8,29.80,North,0,0.0,0.0,81,0.00,,,0.00,meteohub,2013-04-10 12:07:00,
2013-04-10 07:13:00,72.1,66.0,29.80,North,0,0.0,0.0,81,0.00,,,0.00,meteohub,2013-04-10 12:13:00,
2013-04-10 07:18:00,72.3,66.2,29.80,North,0,0.0,0.0,81,0.00,,,0.00,meteohub,2013-04-10 12:18:00,
2013-04-10 07:23:00,72.7,66.2,29.80,North,0,0.0,0.0,80,0.00,,,0.00,meteohub,2013-04-10 12:23:00,
2013-04-10 07:28:00,72.9,66.4,29.81,North,0,0.0,0.0,80,0.00,,,0.00,meteohub,2013-04-10 12:28:00,
2013-04-10 07:33:00,73.0,66.6,29.81,North,0,0.0,0.0,80,0.00,,,0.00,meteohub,2013-04-10 12:33:00,
2013-04-10 07:38:00,73.2,66.4,29.82,North,0,0.0,0.0,79,0.00,,,0.00,meteohub,2013-04-10 12:38:00,
2013-04-10 07:43:00,73.6,66.7,29.82,North,0,0.0,0.0,79,0.00,,,0.00,meteohub,2013-04-10 12:43:00,
2013-04-10 07:48:00,73.8,66.4,29.82,North,0,0.0,0.0,78,0.00,,,0.00,meteohub,2013-04-10 12:48:00,
2013-04-10 07:54:00,73.8,66.9,29.82,North,0,0.0,0.0,79,0.00,,,0.00,meteohub,2013-04-10 12:54:00,
2013-04-10 07:59:00,73.6,66.4,29.83,North,0,0.0,0.0,78,0.00,,,0.00,meteohub,2013-04-10 12:59:00,
2013-04-10 08:04:00,73.0,66.2,29.82,North,0,0.0,0.0,79,0.00,,,0.00,meteohub,2013-04-10 13:04:00,
2013-04-10 08:09:00,73.0,66.6,29.83,North,0,0.0,0.0,80,0.00,,,0.00,meteohub,2013-04-10 13:09:00,
2013-04-10 08:15:00,72.3,65.8,29.83,North,0,0.0,0.0,80,0.00,,,0.00,meteohub,2013-04-10 13:15:00,
2013-04-10 08:20:00,71.8,65.7,29.83,North,0,0.0,0.0,81,0.00,,,0.00,meteohub,2013-04-10 13:20:00,
2013-04-10 08:25:00,71.2,65.5,29.82,North,0,0.0,0.0,82,0.00,,,0.00,meteohub,2013-04-10 13:25:00,
2013-04-10 08:30:00,70.9,65.5,29.82,North,0,0.0,0.0,83,0.00,,,0.00,meteohub,2013-04-10 13:30:00,
2013-04-10 08:35:00,70.9,65.5,29.82,North,0,0.0,0.0,83,0.00,,,0.00,meteohub,2013-04-10 13:35:00,
2013-04-10 08:40:00,70.9,65.8,29.81,North,0,0.0,0.0,84,0.00,,,0.00,meteohub,2013-04-10 13:40:00,
2013-04-10 08:46:00,71.1,66.0,29.81,North,0,0.0,0.0,84,0.00,,,0.00,meteohub,2013-04-10 13:46:00,
2013-04-10 08:51:00,71.2,65.8,29.82,North,0,0.0,0.0,83,0.00,,,0.00,meteohub,2013-04-10 13:51:00,
2013-04-10 08:56:00,71.4,66.0,29.82,North,0,0.0,0.0,83,0.00,,,0.00,meteohub,2013-04-10 13:56:00,
2013-04-10 09:01:00,71.6,66.2,29.83,North,0,0.0,0.0,83,0.00,,,0.00,meteohub,2013-04-10 14:01:00,
2013-04-10 09:07:00,72.0,66.6,29.83,North,0,0.0,0.0,83,0.00,,,0.00,meteohub,2013-04-10 14:07:00,
2013-04-10 09:12:00,72.1,66.7,29.83,North,0,0.0,0.0,83,0.00,,,0.00,meteohub,2013-04-10 14:12:00,
2013-04-10 09:17:00,72.3,66.9,29.83,North,0,0.0,0.0,83,0.00,,,0.00,meteohub,2013-04-10 14:17:00,
2013-04-10 09:22:00,72.9,67.1,29.83,North,0,0.0,0.0,82,0.00,,,0.00,meteohub,2013-04-10 14:22:00,
2013-04-10 09:27:00,73.4,67.3,29.83,North,0,0.0,0.0,81,0.00,,,0.00,meteohub,2013-04-10 14:27:00,
2013-04-10 09:32:00,73.9,67.5,29.83,North,0,0.0,0.0,80,0.00,,,0.00,meteohub,2013-04-10 14:32:00,
2013-04-10 09:37:00,74.5,67.5,29.83,North,0,0.0,0.0,79,0.00,,,0.00,meteohub,2013-04-10 14:37:00,
2013-04-10 09:42:00,74.8,67.5,29.83,North,0,0.0,0.0,78,0.00,,,0.00,meteohub,2013-04-10 14:42:00,
2013-04-10 09:47:00,75.6,68.2,29.83,North,0,0.0,0.0,78,0.00,,,0.00,meteohub,2013-04-10 14:47:00,
2013-04-10 09:52:00,75.6,67.8,29.83,North,0,0.0,0.0,77,0.00,,,0.00,meteohub,2013-04-10 14:52:00,
2013-04-10 09:57:00,75.7,68.0,29.83,North,0,0.0,0.0,77,0.00,,,0.00,meteohub,2013-04-10 14:57:00,
2013-04-10 10:02:00,76.3,68.2,29.83,North,0,0.0,0.0,76,0.00,,,0.00,meteohub,2013-04-10 15:02:00,
2013-04-10 10:07:00,76.5,68.4,29.83,North,0,0.0,0.0,76,0.00,,,0.00,meteohub,2013-04-10 15:07:00,
2013-04-10 10:12:00,76.3,68.2,29.83,North,0,0.0,0.0,76,0.00,,,0.00,meteohub,2013-04-10 15:12:00,
2013-04-10 10:17:00,75.9,67.8,29.83,North,0,0.0,0.0,76,0.00,,,0.00,meteohub,2013-04-10 15:17:00,
2013-04-10 10:22:00,76.1,68.0,29.83,North,0,0.0,0.0,76,0.00,,,0.00,meteohub,2013-04-10 15:22:00,
2013-04-10 10:27:00,76.3,68.2,29.83,North,0,0.0,0.0,76,0.00,,,0.00,meteohub,2013-04-10 15:27:00,
2013-04-10 10:32:00,76.5,68.4,29.83,North,0,0.0,0.0,76,0.00,,,0.00,meteohub,2013-04-10 15:32:00,
2013-04-10 10:37:00,76.6,67.6,29.83,North,0,0.0,0.0,74,0.00,,,0.00,meteohub,2013-04-10 15:37:00,
2013-04-10 10:42:00,77.2,68.2,29.83,North,0,0.0,0.0,74,0.00,,,0.00,meteohub,2013-04-10 15:42:00,
2013-04-10 10:47:00,77.2,67.8,29.83,North,0,0.0,0.0,73,0.00,,,0.00,meteohub,2013-04-10 15:47:00,
2013-04-10 10:52:00,77.4,68.4,29.83,North,0,0.0,0.0,74,0.00,,,0.00,meteohub,2013-04-10 15:52:00,
2013-04-10 10:57:00,77.5,68.2,29.83,North,0,0.0,0.0,73,0.00,,,0.00,meteohub,2013-04-10 15:57:00,
2013-04-10 11:02:00,78.1,68.4,29.83,North,0,0.0,0.0,72,0.00,,,0.00,meteohub,2013-04-10 16:02:00,
2013-04-10 11:08:00,78.4,68.2,29.83,North,0,0.0,0.0,71,0.00,,,0.00,meteohub,2013-04-10 16:08:00,
2013-04-10 11:13:00,78.6,68.0,29.83,North,0,0.0,0.0,70,0.00,,,0.00,meteohub,2013-04-10 16:13:00,
2013-04-10 11:18:00,78.8,68.2,29.83,North,0,0.0,0.0,70,0.00,,,0.00,meteohub,2013-04-10 16:18:00,
2013-04-10 11:23:00,79.0,68.0,29.82,North,0,0.0,0.0,69,0.00,,,0.00,meteohub,2013-04-10 16:23:00,
2013-04-10 11:29:00,79.3,67.8,29.82,North,0,0.0,0.0,68,0.00,,,0.00,meteohub,2013-04-10 16:29:00,
2013-04-10 11:34:00,79.7,68.2,29.82,North,0,0.0,0.0,68,0.00,,,0.00,meteohub,2013-04-10 16:34:00,
2013-04-10 11:39:00,80.1,68.5,29.82,North,0,0.0,0.0,68,0.00,,,0.00,meteohub,2013-04-10 16:39:00,
2013-04-10 11:44:00,80.1,68.2,29.82,North,0,0.0,0.0,67,0.00,,,0.00,meteohub,2013-04-10 16:44:00,
2013-04-10 11:49:00,80.2,68.4,29.82,North,0,0.0,0.0,67,0.00,,,0.00,meteohub,2013-04-10 16:49:00,
2013-04-10 11:55:00,80.4,68.0,29.82,North,0,0.0,0.0,66,0.00,,,0.00,meteohub,2013-04-10 16:55:00,
2013-04-10 12:00:00,80.4,68.0,29.82,North,0,0.0,0.0,66,0.00,,,0.00,meteohub,2013-04-10 17:00:00,
2013-04-10 12:05:00,80.4,68.0,29.81,North,0,0.0,0.0,66,0.00,,,0.00,meteohub,2013-04-10 17:05:00,
2013-04-10 12:11:00,80.2,67.5,29.81,North,0,0.0,0.0,65,0.00,,,0.00,meteohub,2013-04-10 17:11:00,
2013-04-10 12:16:00,80.2,66.9,29.81,North,0,0.0,0.0,64,0.00,,,0.00,meteohub,2013-04-10 17:16:00,
2013-04-10 12:21:00,76.5,65.5,29.82,North,0,0.0,0.0,69,0.00,,,0.00,meteohub,2013-04-10 17:21:00,
2013-04-10 12:27:00,75.4,65.7,29.81,North,0,0.0,0.0,72,0.00,,,0.00,meteohub,2013-04-10 17:27:00,
2013-04-10 12:32:00,75.2,66.0,29.81,North,0,0.0,0.0,73,0.00,,,0.00,meteohub,2013-04-10 17:32:00,
2013-04-10 12:37:00,75.4,66.2,29.81,North,0,0.0,0.0,73,0.00,,,0.00,meteohub,2013-04-10 17:37:00,
2013-04-10 12:43:00,76.3,66.2,29.80,North,0,0.0,0.0,71,0.00,,,0.00,meteohub,2013-04-10 17:43:00,
2013-04-10 12:48:00,76.6,66.6,29.80,North,0,0.0,0.0,71,0.00,,,0.00,meteohub,2013-04-10 17:48:00,
2013-04-10 12:53:00,77.2,66.6,29.80,North,0,0.0,0.0,70,0.00,,,0.00,meteohub,2013-04-10 17:53:00,
2013-04-10 12:59:00,78.3,67.3,29.79,North,0,0.0,0.0,69,0.00,,,0.00,meteohub,2013-04-10 17:59:00,
2013-04-10 13:04:00,78.6,67.1,29.79,North,0,0.0,0.0,68,0.00,,,0.00,meteohub,2013-04-10 18:04:00,
2013-04-10 13:09:00,79.2,68.2,29.79,North,0,0.0,0.0,69,0.00,,,0.00,meteohub,2013-04-10 18:09:00,
2013-04-10 13:14:00,80.8,68.7,29.79,North,0,0.0,0.0,67,0.00,,,0.00,meteohub,2013-04-10 18:14:00,
2013-04-10 13:20:00,82.0,68.7,29.79,North,0,0.0,0.0,64,0.00,,,0.00,meteohub,2013-04-10 18:20:00,
2013-04-10 13:25:00,82.8,68.4,29.78,North,0,0.0,0.0,62,0.00,,,0.00,meteohub,2013-04-10 18:25:00,
2013-04-10 13:30:00,83.5,69.1,29.78,North,0,0.0,0.0,62,0.00,,,0.00,meteohub,2013-04-10 18:30:00,
2013-04-10 13:35:00,84.4,68.0,29.77,North,0,0.0,0.0,58,0.00,,,0.00,meteohub,2013-04-10 18:35:00,
2013-04-10 13:41:00,84.2,68.4,29.76,North,0,0.0,0.0,59,0.00,,,0.00,meteohub,2013-04-10 18:41:00,
2013-04-10 13:46:00,83.5,68.5,29.76,North,0,0.0,0.0,61,0.00,,,0.00,meteohub,2013-04-10 18:46:00,
2013-04-10 13:51:00,81.1,68.2,29.77,North,0,0.0,0.0,65,0.00,,,0.00,meteohub,2013-04-10 18:51:00,
2013-04-10 13:57:00,82.0,68.7,29.76,North,0,0.0,0.0,64,0.00,,,0.00,meteohub,2013-04-10 18:57:00,
2013-04-10 14:02:00,82.9,68.5,29.76,North,0,0.0,0.0,62,0.00,,,0.00,meteohub,2013-04-10 19:02:00,
2013-04-10 14:07:00,82.4,68.5,29.76,North,0,0.0,0.0,63,0.00,,,0.00,meteohub,2013-04-10 19:07:00,
2013-04-10 14:12:00,81.9,68.0,29.76,North,0,0.0,0.0,63,0.00,,,0.00,meteohub,2013-04-10 19:12:00,
2013-04-10 14:17:00,81.1,67.8,29.75,North,0,0.0,0.0,64,0.00,,,0.00,meteohub,2013-04-10 19:17:00,
2013-04-10 14:22:00,81.0,68.0,29.75,North,0,0.0,0.0,65,0.00,,,0.00,meteohub,2013-04-10 19:22:00,
2013-04-10 14:27:00,81.9,68.0,29.75,North,0,0.0,0.0,63,0.00,,,0.00,meteohub,2013-04-10 19:27:00,
2013-04-10 14:32:00,82.0,67.6,29.75,North,0,0.0,0.0,62,0.00,,,0.00,meteohub,2013-04-10 19:32:00,
2013-04-10 14:37:00,82.4,67.6,29.75,North,0,0.0,0.0,61,0.00,,,0.00,meteohub,2013-04-10 19:37:00,
2013-04-10 14:42:00,81.7,67.8,29.74,North,0,0.0,0.0,63,0.00,,,0.00,meteohub,2013-04-10 19:42:00,
2013-04-10 14:47:00,81.9,67.1,29.74,North,0,0.0,0.0,61,0.00,,,0.00,meteohub,2013-04-10 19:47:00,
2013-04-10 14:52:00,82.9,67.6,29.74,North,0,0.0,0.0,60,0.00,,,0.00,meteohub,2013-04-10 19:52:00,
2013-04-10 14:57:00,83.7,68.4,29.73,North,0,0.0,0.0,60,0.00,,,0.00,meteohub,2013-04-10 19:57:00,
2013-04-10 15:03:00,83.7,68.7,29.73,North,0,0.0,0.0,61,0.00,,,0.00,meteohub,2013-04-10 20:03:00,
2013-04-10 15:08:00,82.8,68.0,29.73,North,0,0.0,0.0,61,0.00,,,0.00,meteohub,2013-04-10 20:08:00,
2013-04-10 15:13:00,82.9,68.5,29.73,North,0,0.0,0.0,62,0.00,,,0.00,meteohub,2013-04-10 20:13:00,
2013-04-10 15:18:00,82.0,68.2,29.73,North,0,0.0,0.0,63,0.00,,,0.00,meteohub,2013-04-10 20:18:00,
2013-04-10 15:23:00,81.7,67.8,29.73,North,0,0.0,0.0,63,0.00,,,0.00,meteohub,2013-04-10 20:23:00,
2013-04-10 15:29:00,81.9,68.0,29.72,North,0,0.0,0.0,63,0.00,,,0.00,meteohub,2013-04-10 20:29:00,
2013-04-10 15:34:00,81.7,67.8,29.72,North,0,0.0,0.0,63,0.00,,,0.00,meteohub,2013-04-10 20:34:00,
2013-04-10 15:39:00,81.3,67.5,29.72,North,0,0.0,0.0,63,0.00,,,0.00,meteohub,2013-04-10 20:39:00,
2013-04-10 15:45:00,81.9,67.6,29.71,North,0,0.0,0.0,62,0.00,,,0.00,meteohub,2013-04-10 20:45:00,
2013-04-10 15:50:00,82.4,68.0,29.71,North,0,0.0,0.0,62,0.00,,,0.00,meteohub,2013-04-10 20:50:00,
2013-04-10 15:55:00,81.1,67.3,29.69,North,0,0.0,0.0,63,0.00,,,0.00,meteohub,2013-04-10 20:55:00,
2013-04-10 16:00:00,81.0,67.6,29.69,North,0,0.0,0.0,64,0.00,,,0.00,meteohub,2013-04-10 21:00:00,
2013-04-10 16:06:00,81.1,67.8,29.68,North,0,0.0,0.0,64,0.00,,,0.00,meteohub,2013-04-10 21:06:00,
2013-04-10 16:12:00,80.1,67.6,29.69,North,0,0.0,0.0,66,0.00,,,0.00,meteohub,2013-04-10 21:12:00,
2013-04-10 16:17:00,80.2,66.9,29.68,North,0,0.0,0.0,64,0.00,,,0.00,meteohub,2013-04-10 21:17:00,
2013-04-10 16:22:00,79.9,67.5,29.67,North,0,0.0,0.0,66,0.00,,,0.00,meteohub,2013-04-10 21:22:00,
2013-04-10 16:27:00,80.2,66.6,29.66,North,0,0.0,0.0,63,0.00,,,0.00,meteohub,2013-04-10 21:27:00,
2013-04-10 16:32:00,79.5,66.2,29.67,North,0,0.0,0.0,64,0.00,,,0.00,meteohub,2013-04-10 21:32:00,
2013-04-10 16:38:00,80.2,66.0,29.67,North,0,0.0,0.0,62,0.00,,,0.00,meteohub,2013-04-10 21:38:00,
2013-04-10 16:43:00,80.4,65.7,29.68,North,0,0.0,0.0,61,0.00,,,0.00,meteohub,2013-04-10 21:43:00,
2013-04-10 16:48:00,80.1,65.8,29.67,North,0,0.0,0.0,62,0.00,,,0.00,meteohub,2013-04-10 21:48:00,
2013-04-10 16:54:00,80.2,66.0,29.67,North,0,0.0,0.0,62,0.00,,,0.00,meteohub,2013-04-10 21:54:00,
2013-04-10 16:59:00,80.2,66.6,29.67,North,0,0.0,0.0,63,0.00,,,0.00,meteohub,2013-04-10 21:59:00,
2013-04-10 17:04:00,80.1,66.4,29.67,North,0,0.0,0.0,63,0.00,,,0.00,meteohub,2013-04-10 22:04:00,
2013-04-10 17:10:00,79.0,66.6,29.66,North,0,0.0,0.0,66,0.00,,,0.00,meteohub,2013-04-10 22:10:00,
2013-04-10 17:15:00,79.2,67.3,29.66,North,0,0.0,0.0,67,0.00,,,0.00,meteohub,2013-04-10 22:15:00,
2013-04-10 17:20:00,79.0,66.6,29.66,North,0,0.0,0.0,66,0.00,,,0.00,meteohub,2013-04-10 22:20:00,
2013-04-10 17:25:00,79.0,66.6,29.67,North,0,0.0,0.0,66,0.00,,,0.00,meteohub,2013-04-10 22:25:00,
2013-04-10 17:31:00,79.2,66.7,29.67,North,0,0.0,0.0,66,0.00,,,0.00,meteohub,2013-04-10 22:31:00,
2013-04-10 17:36:00,78.8,66.9,29.66,North,0,0.0,0.0,67,0.00,,,0.00,meteohub,2013-04-10 22:36:00,
2013-04-10 17:41:00,78.4,66.9,29.66,North,0,0.0,0.0,68,0.00,,,0.00,meteohub,2013-04-10 22:41:00,
2013-04-10 17:46:00,78.3,67.3,29.66,North,0,0.0,0.0,69,0.00,,,0.00,meteohub,2013-04-10 22:46:00,
2013-04-10 17:51:00,77.5,66.6,29.66,North,0,0.0,0.0,69,0.00,,,0.00,meteohub,2013-04-10 22:51:00,
2013-04-10 17:57:00,77.2,66.6,29.66,North,0,0.0,0.0,70,0.00,,,0.00,meteohub,2013-04-10 22:57:00,
2013-04-10 18:02:00,77.2,67.1,29.66,North,0,0.0,0.0,71,0.00,,,0.00,meteohub,2013-04-10 23:02:00,
2013-04-10 18:07:00,77.7,67.1,29.65,North,0,0.0,0.0,70,0.00,,,0.00,meteohub,2013-04-10 23:07:00,
2013-04-10 18:12:00,77.4,66.7,29.65,North,0,0.0,0.0,70,0.00,,,0.00,meteohub,2013-04-10 23:12:00,
2013-04-10 18:17:00,77.0,66.9,29.65,North,0,0.0,0.0,71,0.00,,,0.00,meteohub,2013-04-10 23:17:00,
2013-04-10 18:23:00,76.8,67.1,29.64,North,0,0.0,0.0,72,0.00,,,0.00,meteohub,2013-04-10 23:23:00,
2013-04-10 18:28:00,76.5,67.1,29.63,North,0,0.0,0.0,73,0.00,,,0.00,meteohub,2013-04-10 23:28:00,
2013-04-10 18:33:00,76.1,67.3,29.63,North,0,0.0,0.0,74,0.00,,,0.00,meteohub,2013-04-10 23:33:00,
2013-04-10 18:38:00,75.7,67.3,29.63,North,0,0.0,0.0,75,0.00,,,0.00,meteohub,2013-04-10 23:38:00,
2013-04-10 18:44:00,75.6,67.5,29.64,North,0,0.0,0.0,76,0.00,,,0.00,meteohub,2013-04-10 23:44:00,
2013-04-10 18:49:00,75.6,67.5,29.63,North,0,0.0,0.0,76,0.00,,,0.00,meteohub,2013-04-10 23:49:00,
2013-04-10 18:54:00,75.4,67.3,29.63,North,0,0.0,0.0,76,0.00,,,0.00,meteohub,2013-04-10 23:54:00,
2013-04-10 18:59:00,75.6,67.5,29.62,North,0,0.0,0.0,76,0.00,,,0.00,meteohub,2013-04-10 23:59:00,
2013-04-10 19:05:00,75.6,67.5,29.62,North,0,0.0,0.0,76,0.00,,,0.00,meteohub,2013-04-11 00:05:00,
2013-04-10 19:10:00,75.7,67.3,29.62,North,0,0.0,0.0,75,0.00,,,0.00,meteohub,2013-04-11 00:10:00,
2013-04-10 19:15:00,76.6,66.9,29.62,North,0,0.0,0.0,72,0.00,,,0.00,meteohub,2013-04-11 00:15:00,
2013-04-10 19:21:00,77.2,67.1,29.62,North,0,0.0,0.0,71,0.00,,,0.00,meteohub,2013-04-11 00:21:00,
2013-04-10 19:26:00,77.4,66.7,29.62,North,0,0.0,0.0,70,0.00,,,0.00,meteohub,2013-04-11 00:26:00,
2013-04-10 19:31:00,77.7,66.7,29.62,North,0,0.0,0.0,69,0.00,,,0.00,meteohub,2013-04-11 00:31:00,
2013-04-10 19:37:00,78.1,66.7,29.61,North,0,0.0,0.0,68,0.00,,,0.00,meteohub,2013-04-11 00:37:00,
2013-04-10 19:42:00,78.3,66.4,29.62,North,0,0.0,0.0,67,0.00,,,0.00,meteohub,2013-04-11 00:42:00,
2013-04-10 19:47:00,78.3,66.4,29.61,North,0,0.0,0.0,67,0.00,,,0.00,meteohub,2013-04-11 00:47:00,
2013-04-10 19:52:00,77.7,66.4,29.62,North,0,0.0,0.0,68,0.00,,,0.00,meteohub,2013-04-11 00:52:00,
2013-04-10 19:57:00,77.5,66.9,29.63,North,0,0.0,0.0,70,0.00,,,0.00,meteohub,2013-04-11 00:57:00,
2013-04-10 20:02:00,75.4,64.6,29.62,North,0,0.0,0.0,69,0.00,,,0.00,meteohub,2013-04-11 01:02:00,
2013-04-10 20:07:00,74.1,66.0,29.64,North,0,0.0,0.0,76,0.01,,,0.01,meteohub,2013-04-11 01:07:00,
2013-04-10 20:12:00,73.4,66.2,29.63,North,0,0.0,0.0,78,0.03,,,0.03,meteohub,2013-04-11 01:12:00,
2013-04-10 20:17:00,73.2,66.4,29.64,North,0,0.0,0.0,79,0.05,,,0.05,meteohub,2013-04-11 01:17:00,
2013-04-10 20:22:00,73.2,66.4,29.65,North,0,0.0,0.0,79,0.05,,,0.05,meteohub,2013-04-11 01:22:00,
2013-04-10 20:27:00,73.8,66.9,29.66,North,0,0.0,0.0,79,0.05,,,0.05,meteohub,2013-04-11 01:27:00,
2013-04-10 20:32:00,72.7,64.2,29.70,North,0,0.0,0.0,75,0.05,,,0.05,meteohub,2013-04-11 01:32:00,
2013-04-10 20:37:00,65.1,60.1,29.71,North,0,0.0,0.0,84,0.06,,,0.06,meteohub,2013-04-11 01:37:00,
2013-04-10 20:42:00,63.0,59.4,29.71,North,0,0.0,0.0,88,0.10,,,0.10,meteohub,2013-04-11 01:42:00,
2013-04-10 20:47:00,62.2,59.0,29.72,North,0,0.0,0.0,89,0.13,,,0.13,meteohub,2013-04-11 01:47:00,
2013-04-10 20:53:00,62.1,59.2,29.74,North,0,0.0,0.0,90,0.20,,,0.20,meteohub,2013-04-11 01:53:00,
2013-04-10 20:58:00,61.5,58.8,29.73,North,0,0.0,0.0,91,0.27,,,0.27,meteohub,2013-04-11 01:58:00,
2013-04-10 21:03:00,61.2,58.5,29.73,North,0,0.0,0.0,91,0.31,,,0.31,meteohub,2013-04-11 02:03:00,
2013-04-10 21:08:00,60.6,57.9,29.73,North,0,0.0,0.0,91,0.37,,,0.38,meteohub,2013-04-11 02:08:00,
2013-04-10 21:14:00,60.4,58.1,29.72,North,0,0.0,0.0,92,0.41,,,0.45,meteohub,2013-04-11 02:14:00,
2013-04-10 21:19:00,60.3,57.9,29.73,North,0,0.0,0.0,92,0.44,,,0.49,meteohub,2013-04-11 02:19:00,
2013-04-10 21:24:00,60.3,57.9,29.73,North,0,0.0,0.0,92,0.51,,,0.56,meteohub,2013-04-11 02:24:00,
2013-04-10 21:30:00,60.4,58.5,29.74,North,0,0.0,0.0,93,0.54,,,0.59,meteohub,2013-04-11 02:30:00,
2013-04-10 21:35:00,60.4,58.1,29.74,North,0,0.0,0.0,92,0.60,,,0.65,meteohub,2013-04-11 02:35:00,
2013-04-10 21:40:00,60.3,57.9,29.74,North,0,0.0,0.0,92,0.65,,,0.71,meteohub,2013-04-11 02:40:00,
2013-04-10 21:45:00,60.3,57.9,29.74,North,0,0.0,0.0,92,0.63,,,0.79,meteohub,2013-04-11 02:45:00,
2013-04-10 21:50:00,60.1,57.7,29.73,North,0,0.0,0.0,92,0.62,,,0.84,meteohub,2013-04-11 02:50:00,
2013-04-10 21:55:00,60.1,57.7,29.72,North,0,0.0,0.0,92,0.58,,,0.86,meteohub,2013-04-11 02:55:00,
2013-04-10 22:00:00,59.7,57.7,29.72,North,0,0.0,0.0,93,0.56,,,0.91,meteohub,2013-04-11 03:00:00,
2013-04-10 22:06:00,59.7,57.7,29.72,North,0,0.0,0.0,93,0.53,,,0.93,meteohub,2013-04-11 03:06:00,
2013-04-10 22:11:00,59.7,57.7,29.73,North,0,0.0,0.0,93,0.51,,,0.97,meteohub,2013-04-11 03:11:00,
2013-04-10 22:17:00,59.5,57.6,29.73,North,0,0.0,0.0,93,0.49,,,1.01,meteohub,2013-04-11 03:17:00,
2013-04-10 22:22:00,59.4,57.4,29.74,North,0,0.0,0.0,93,0.46,,,1.03,meteohub,2013-04-11 03:22:00,
2013-04-10 22:27:00,59.2,57.2,29.73,North,0,0.0,0.0,93,0.45,,,1.07,meteohub,2013-04-11 03:27:00,
2013-04-10 22:32:00,59.0,57.0,29.73,North,0,0.0,0.0,93,0.41,,,1.08,meteohub,2013-04-11 03:32:00,
2013-04-10 22:37:00,58.6,56.7,29.73,North,0,0.0,0.0,93,0.40,,,1.12,meteohub,2013-04-11 03:37:00,
2013-04-10 22:42:00,58.5,56.5,29.71,North,0,0.0,0.0,93,0.37,,,1.13,meteohub,2013-04-11 03:42:00,
2013-04-10 22:47:00,57.9,55.9,29.72,North,0,0.0,0.0,93,0.36,,,1.16,meteohub,2013-04-11 03:47:00,
2013-04-10 22:52:00,57.2,55.2,29.72,North,0,0.0,0.0,93,0.34,,,1.17,meteohub,2013-04-11 03:52:00,
2013-04-10 22:57:00,57.0,55.0,29.73,North,0,0.0,0.0,93,0.32,,,1.20,meteohub,2013-04-11 03:57:00,
2013-04-10 23:00:00,56.8,54.9,29.73,North,0,0.0,0.0,93,0.32,,,1.23,meteohub,2013-04-11 04:00:00,
2013-04-10 23:02:00,56.8,55.2,29.73,North,0,0.0,0.0,94,0.31,,,1.23,meteohub,2013-04-11 04:02:00,
2013-04-10 23:07:00,56.8,55.2,29.72,North,0,0.0,0.0,94,0.29,,,1.24,meteohub,2013-04-11 04:07:00,
2013-04-10 23:13:00,56.7,55.0,29.72,North,0,0.0,0.0,94,0.28,,,1.26,meteohub,2013-04-11 04:13:00,
2013-04-10 23:18:00,56.7,55.0,29.71,North,0,0.0,0.0,94,0.26,,,1.27,meteohub,2013-04-11 04:18:00,
2013-04-10 23:23:00,56.5,54.9,29.71,North,0,0.0,0.0,94,0.24,,,1.28,meteohub,2013-04-11 04:23:00,
2013-04-10 23:28:00,56.5,54.9,29.70,North,0,0.0,0.0,94,0.23,,,1.30,meteohub,2013-04-11 04:28:00,
2013-04-10 23:33:00,56.5,54.9,29.70,North,0,0.0,0.0,94,0.20,,,1.30,meteohub,2013-04-11 04:33:00,
2013-04-10 23:39:00,56.5,54.9,29.69,North,0,0.0,0.0,94,0.18,,,1.30,meteohub,2013-04-11 04:39:00,
2013-04-10 23:44:00,56.5,54.9,29.69,North,0,0.0,0.0,94,0.15,,,1.30,meteohub,2013-04-11 04:44:00,
2013-04-10 23:49:00,56.5,54.9,29.68,North,0,0.0,0.0,94,0.13,,,1.30,meteohub,2013-04-11 04:49:00,
2013-04-10 23:54:00,56.7,55.0,29.68,North,0,0.0,0.0,94,0.11,,,1.30,meteohub,2013-04-11 04:54:00,